Temp
-2 -2 -2 -3 -3 -3 -3 -3 -3 -3 -3 -3 -3 -3 -3 -3 -4 -4 -4 -4 -4 -4 -4 -4 -4 -4 -4 -4 -5 -5 -6 -6 -6 -6 -6 -7 -7 -7 -8 -9 -9 -9 -8 -8 -9 -10 -10 -10 -11 -11 -11 -11 -11 -12 -12 -12 -12 -12 -12 -12 -11 -11 -11
-2 -3 -3 -3 -3 -3 -3 -3 -4 -4 -4 -4 -4 -4 -4 -4 -4 -4 -4 -4 -4 -4 -4 -4 -4 -5 -5 -5 -6 -6 -6 -7 -7 -7 -7 -7 -8 -8 -9 -10 -10 -10 -10 -9 -10 -11 -11 -11 -11 -11 -12 -12 -12 -13 -13 -13 -13 -13 -12 -12 -13 -13 -12
-3 -3 -3 -3 -3 -3 -4 -4 -4 -4 -4 -4 -4 -4 -4 -4 -4 -4 -4 -4 -4 -4 -4 -5 -5 -5 -5 -6 -6 -7 -7 -7 -8 -8 -8 -9 -9 -9 -10 -11 -11 -11 -11 -11 -11 -12 -12 -12 -12 -13 -13 -13 -13 -14 -14 -13 -13 -13 -13 -13 -13 -13 -13
-3 -3 -3 -3 -3 -4 -4 -4 -4 -5 -5 -5 -5 -5 -5 -5 -5 -5 -5 -5 -5 -5 -5 -5 -5 -5 -5 -6 -7 -7 -8 -8 -9 -9 -9 -10 -10 -10 -11 -11 -12 -12 -13 -13 -13 -13 -13 -13 -14 -14 -14 -14 -14 -14 -14 -14 -14 -14 -14 -14 -14 -14 -14
-4 -4 -4 -4 -4 -4 -4 -5 -5 -5 -5 -5 -5 -6 -6 -6 -6 -6 -6 -6 -6 -5 -5 -5 -5 -6 -6 -6 -7 -8 -8 -9 -9 -10 -10 -10 -11 -11 -12 -12 -13 -13 -13 -14 -14 -14 -14 -14 -14 -15 -15 -15 -15 -15 -15 -14 -14 -14 -14 -14 -14 -14 -15
-4 -4 -4 -4 -4 -4 -5 -5 -5 -5 -5 -6 -6 -6 -6 -6 -6 -6 -6 -6 -6 -6 -6 -6 -6 -6 -7 -7 -7 -8 -8 -9 -10 -10 -11 -11 -12 -12 -13 -13 -13 -14 -14 -14 -14 -14 -14 -15 -15 -15 -15 -15 -15 -15 -15 -15 -15 -14 -14 -15 -15 -15 -16
-5 -5 -5 -5 -5 -5 -5 -5 -6 -6 -6 -6 -6 -6 -7 -7 -7 -7 -7 -7 -7 -7 -7 -7 -7 -7 -7 -7 -7 -8 -9 -10 -10 -11 -12 -12 -12 -13 -13 -13 -14 -14 -15 -15 -15 -15 -15 -15 -15 -15 -15 -15 -16 -16 -16 -16 -15 -15 -16 -16 -16 -16 -17
-5 -5 -5 -5 -6 -6 -6 -6 -6 -6 -6 -6 -7 -7 -7 -7 -7 -8 -8 -8 -8 -8 -8 -8 -8 -8 -8 -8 -8 -9 -10 -11 -11 -12 -12 -12 -13 -13 -14 -14 -14 -15 -15 -15 -15 -15 -15 -15 -15 -16 -16 -16 -17 -17 -16 -16 -16 -17 -17 -17 -17 -17 -17
-6 -6 -6 -6 -6 -6 -6 -6 -7 -7 -7 -7 -7 -7 -7 -7 -8 -8 -8 -8 -8 -8 -8 -8 -8 -8 -9 -9 -9 -10 -11 -12 -12 -12 -12 -13 -13 -13 -14 -15 -15 -15 -16 -16 -16 -16 -16 -16 -16 -16 -17 -17 -17 -17 -17 -17 -18 -18 -18 -18 -18 -18 -18
-6 -7 -7 -7 -7 -7 -7 -7 -7 -7 -8 -8 -8 -8 -8 -8 -8 -8 -8 -8 -9 -9 -9 -9 -9 -9 -9 -10 -10 -11 -12 -12 -13 -13 -13 -13 -14 -14 -15 -15 -15 -16 -16 -16 -16 -16 -16 -17 -17 -17 -18 -18 -18 -18 -18 -19 -19 -19 -19 -19 -19 -19 -18
-7 -7 -7 -8 -8 -8 -8 -8 -8 -8 -8 -8 -8 -8 -8 -8 -8 -8 -9 -9 -9 -9 -9 -10 -10 -10 -10 -11 -11 -12 -12 -13 -13 -13 -14 -14 -14 -15 -15 -15 -16 -16 -16 -17 -17 -17 -17 -18 -18 -18 -19 -19 -19 -19 -19 -19 -19 -20 -20 -20 -20 -20 -19
-7 -8 -8 -8 -8 -9 -9 -9 -9 -9 -9 -9 -9 -9 -9 -9 -9 -9 -9 -9 -9 -10 -10 -10 -10 -11 -11 -11 -12 -12 -13 -13 -14 -14 -14 -14 -15 -15 -16 -16 -16 -17 -17 -17 -17 -17 -18 -18 -18 -19 -19 -19 -19 -19 -20 -20 -20 -20 -20 -20 -20 -20 -20
-7 -8 -8 -8 -8 -9 -9 -9 -9 -10 -10 -10 -10 -10 -10 -10 -10 -9 -10 -10 -10 -10 -10 -10 -11 -11 -12 -12 -12 -13 -13 -14 -14 -14 -15 -15 -15 -16 -16 -16 -17 -17 -17 -17 -18 -18 -18 -18 -19 -19 -19 -19 -19 -20 -20 -20 -20 -20 -20 -20 -20 -20 -21
-8 -8 -8 -8 -8 -9 -9 -9 -9 -10 -10 -11 -11 -11 -11 -10 -10 -10 -10 -10 -10 -11 -11 -11 -11 -12 -12 -12 -12 -13 -13 -14 -14 -15 -15 -15 -15 -16 -16 -17 -17 -17 -17 -18 -18 -19 -19 -19 -19 -19 -19 -20 -20 -20 -20 -20 -20 -20 -20 -20 -21 -21 -21
-9 -9 -9 -9 -9 -9 -9 -9 -9 -10 -10 -11 -11 -12 -11 -11 -11 -11 -11 -11 -11 -11 -11 -12 -12 -12 -12 -12 -13 -13 -14 -14 -15 -15 -15 -16 -16 -16 -17 -17 -17 -18 -18 -18 -18 -18 -19 -20 -20 -20 -20 -20 -20 -20 -20 -20 -20 -20 -21 -21 -21 -21 -22
-10 -10 -10 -10 -10 -10 -9 -9 -10 -10 -10 -11 -11 -12 -12 -12 -12 -12 -12 -12 -12 -12 -12 -12 -13 -13 -13 -13 -13 -14 -14 -15 -15 -16 -16 -16 -16 -16 -17 -17 -17 -18 -18 -18 -18 -18 -19 -20 -20 -20 -20 -20 -20 -20 -20 -20 -20 -20 -21 -21 -22 -22 -22
-11 -11 -11 -10 -11 -10 -10 -10 -10 -10 -10 -11 -12 -12 -12 -12 -12 -13 -12 -12 -12 -13 -13 -13 -13 -13 -13 -14 -14 -14 -15 -15 -15 -16 -16 -16 -16 -17 -17 -17 -18 -18 -18 -19 -19 -19 -19 -19 -19 -19 -19 -19 -19 -19 -19 -20 -20 -20 -21 -21 -22 -22 -22
-11 -11 -11 -11 -11 -11 -11 -11 -11 -11 -11 -11 -12 -13 -13 -13 -13 -13 -13 -13 -13 -13 -13 -13 -13 -13 -14 -14 -14 -15 -15 -16 -16 -16 -16 -17 -17 -18 -18 -18 -18 -18 -18 -18 -19 -20 -19 -19 -19 -19 -19 -19 -19 -19 -19 -20 -20 -20 -21 -21 -22 -22 -22
-12 -12 -12 -12 -12 -12 -12 -12 -12 -12 -12 -12 -12 -13 -14 -13 -13 -13 -13 -14 -14 -13 -13 -13 -14 -14 -14 -15 -15 -15 -16 -16 -16 -17 -17 -17 -18 -19 -19 -19 -19 -19 -19 -19 -19 -19 -19 -19 -19 -19 -20 -20 -20 -20 -19 -20 -20 -20 -21 -21 -21 -22 -22
-13 -13 -13 -13 -13 -12 -13 -13 -12 -12 -12 -12 -13 -14 -14 -14 -13 -13 -14 -14 -14 -14 -14 -14 -14 -15 -15 -15 -15 -16 -16 -17 -17 -17 -18 -18 -19 -19 -19 -20 -20 -20 -20 -20 -20 -20 -20 -20 -20 -20 -20 -20 -20 -20 -20 -21 -21 -21 -21 -21 -21 -22 -22
-14 -14 -14 -14 -13 -13 -13 -13 -13 -13 -13 -13 -13 -14 -14 -14 -14 -14 -14 -14 -14 -14 -14 -15 -15 -15 -15 -16 -16 -16 -17 -17 -18 -18 -18 -19 -19 -19 -20 -20 -20 -20 -21 -21 -21 -21 -20 -20 -20 -20 -20 -20 -20 -21 -21 -22 -22 -21 -21 -21 -21 -22 -22
-15 -15 -14 -14 -14 -14 -14 -14 -14 -14 -14 -14 -14 -14 -14 -14 -14 -14 -14 -14 -14 -15 -15 -15 -15 -16 -16 -16 -17 -17 -17 -17 -18 -18 -18 -19 -19 -20 -20 -20 -20 -20 -21 -21 -21 -21 -21 -21 -21 -21 -21 -21 -21 -21 -21 -21 -21 -21 -21 -21 -22 -22 -22
-16 -15 -15 -15 -15 -15 -14 -14 -14 -14 -14 -15 -15 -14 -14 -15 -15 -15 -15 -15 -15 -15 -16 -16 -16 -17 -17 -17 -17 -18 -18 -18 -18 -19 -19 -20 -20 -20 -20 -20 -20 -20 -20 -21 -21 -21 -21 -21 -21 -21 -21 -21 -21 -21 -21 -21 -21 -21 -21 -22 -22 -22 -22
-17 -16 -16 -16 -15 -15 -15 -15 -15 -15 -15 -15 -15 -15 -15 -15 -15 -15 -15 -16 -16 -16 -16 -17 -17 -17 -18 -18 -18 -18 -18 -19 -19 -20 -20 -20 -21 -21 -21 -21 -20 -20 -20 -20 -20 -21 -21 -21 -21 -21 -21 -21 -21 -21 -21 -21 -21 -22 -22 -22 -22 -22 -22
-17 -17 -17 -17 -17 -16 -16 -16 -15 -15 -15 -16 -16 -16 -16 -16 -16 -16 -16 -16 -17 -17 -17 -17 -18 -18 -18 -18 -19 -19 -19 -20 -20 -20 -20 -21 -21 -21 -21 -21 -21 -21 -21 -21 -21 -21 -21 -21 -21 -21 -21 -22 -22 -22 -22 -22 -22 -22 -23 -23 -23 -23 -23
-17 -17 -18 -18 -18 -17 -17 -17 -17 -16 -16 -16 -16 -16 -17 -16 -16 -16 -17 -17 -17 -17 -17 -18 -18 -18 -19 -19 -19 -19 -20 -20 -21 -21 -21 -21 -21 -21 -21 -21 -22 -21 -21 -21 -21 -21 -21 -21 -21 -21 -22 -22 -22 -22 -22 -22 -23 -23 -23 -23 -23 -23 -23
-17 -18 -18 -18 -18 -18 -18 -18 -18 -17 -17 -17 -17 -17 -17 -17 -17 -17 -17 -17 -17 -18 -18 -18 -19 -19 -19 -19 -19 -20 -20 -20 -21 -21 -21 -21 -22 -22 -22 -22 -22 -22 -22 -22 -22 -22 -21 -21 -22 -22 -22 -22 -22 -22 -23 -23 -23 -23 -23 -23 -23 -23 -23
-18 -18 -18 -18 -18 -18 -18 -19 -18 -18 -18 -17 -17 -18 -18 -18 -18 -18 -18 -18 -18 -18 -18 -19 -19 -19 -20 -20 -20 -20 -20 -20 -21 -21 -22 -22 -22 -22 -22 -22 -22 -22 -22 -22 -22 -22 -22 -22 -22 -22 -22 -22 -23 -23 -23 -23 -23 -23 -23 -23 -24 -24 -23
-19 -19 -19 -18 -18 -18 -19 -19 -19 -19 -19 -19 -18 -18 -18 -18 -18 -18 -18 -19 -19 -19 -19 -19 -19 -20 -20 -20 -20 -21 -21 -21 -21 -21 -22 -22 -23 -23 -23 -23 -23 -23 -23 -23 -23 -22 -22 -22 -22 -22 -22 -23 -23 -23 -23 -23 -23 -23 -23 -24 -24 -24 -24
-20 -20 -20 -20 -19 -19 -19 -19 -19 -19 -19 -19 -19 -19 -19 -19 -19 -19 -19 -19 -19 -20 -20 -20 -20 -20 -20 -20 -21 -21 -21 -21 -21 -22 -22 -23 -23 -23 -23 -23 -23 -23 -23 -23 -23 -23 -23 -23 -23 -23 -23 -23 -23 -23 -23 -23 -23 -24 -24 -24 -24 -24 -24
-21 -21 -20 -20 -20 -20 -20 -20 -20 -20 -20 -20 -20 -20 -20 -20 -20 -20 -20 -20 -20 -20 -20 -20 -20 -20 -21 -21 -21 -21 -22 -22 -22 -22 -23 -23 -24 -24 -23 -23 -23 -23 -23 -24 -24 -23 -23 -23 -23 -23 -23 -23 -24 -24 -24 -24 -24 -24 -24 -24 -24 -24 -24
-21 -21 -21 -20 -20 -20 -20 -20 -20 -20 -20 -20 -20 -20 -20 -20 -20 -20 -20 -20 -20 -20 -21 -21 -21 -21 -21 -21 -21 -22 -22 -22 -23 -23 -24 -24 -24 -24 -23 -23 -23 -23 -23 -24 -24 -24 -24 -23 -23 -23 -24 -24 -24 -24 -24 -24 -24 -24 -24 -24 -24 -24 -24
-22 -22 -21 -21 -21 -21 -21 -21 -21 -21 -21 -21 -21 -21 -21 -21 -21 -21 -21 -21 -21 -20 -21 -21 -21 -21 -21 -21 -22 -22 -23 -23 -23 -24 -24 -24 -24 -24 -24 -24 -24 -24 -24 -24 -24 -24 -24 -24 -24 -24 -24 -24 -24 -24 -24 -24 -24 -24 -25 -25 -25 -25 -25
-23 -22 -22 -22 -22 -22 -21 -21 -21 -21 -21 -21 -21 -22 -22 -22 -22 -22 -22 -22 -22 -21 -21 -21 -21 -21 -21 -22 -22 -23 -23 -24 -24 -24 -24 -24 -24 -24 -24 -24 -24 -24 -24 -24 -24 -24 -24 -24 -24 -24 -24 -24 -24 -24 -24 -24 -25 -25 -25 -25 -25 -25 -25
-23 -23 -23 -23 -23 -23 -22 -22 -22 -22 -21 -21 -22 -22 -22 -22 -22 -22 -22 -22 -23 -23 -22 -22 -22 -22 -22 -23 -23 -23 -24 -24 -24 -24 -24 -24 -24 -24 -25 -25 -25 -25 -24 -24 -24 -24 -24 -24 -24 -24 -24 -24 -24 -25 -25 -24 -25 -25 -25 -25 -25 -25 -25
-24 -24 -24 -24 -24 -23 -23 -23 -23 -23 -22 -22 -22 -22 -22 -22 -23 -23 -23 -23 -23 -23 -23 -23 -23 -23 -23 -23 -24 -24 -24 -24 -24 -24 -24 -24 -24 -24 -24 -24 -24 -25 -24 -24 -24 -24 -24 -24 -24 -24 -24 -25 -25 -25 -25 -25 -25 -25 -25 -25 -25 -26 -26
Height
1454 1454 1454 1454 1454 1455 1455 1456 1456 1457 1457 1457 1458 1459 1460 1461 1461 1461 1461 1462 1463 1464 1464 1465 1466 1466 1468 1469 1469 1469 1469 1470 1471 1471 1472 1473 1473 1473 1473 1474 1474 1472 1472 1474 1475 1475 1476 1477 1477 1476 1476 1476 1475 1475 1474 1473 1472 1471 1471 1470 1470 1470 1469
1451 1451 1450 1450 1450 1451 1451 1451 1452 1452 1452 1452 1453 1454 1454 1455 1456 1456 1456 1457 1457 1459 1460 1460 1461 1461 1463 1464 1464 1465 1465 1466 1466 1467 1468 1468 1468 1469 1469 1470 1470 1469 1468 1469 1470 1471 1471 1471 1472 1472 1472 1473 1472 1471 1470 1469 1468 1467 1467 1467 1466 1466 1465
1448 1447 1447 1447 1447 1447 1447 1447 1448 1448 1448 1448 1448 1449 1449 1450 1450 1451 1451 1451 1452 1453 1454 1455 1456 1457 1458 1459 1460 1460 1461 1461 1462 1463 1463 1464 1465 1465 1466 1466 1467 1466 1465 1465 1465 1466 1466 1467 1467 1467 1467 1468 1467 1466 1466 1465 1465 1464 1463 1463 1462 1462 1461
1444 1444 1443 1443 1443 1443 1443 1443 1444 1444 1443 1443 1444 1444 1445 1445 1446 1446 1446 1447 1448 1449 1449 1450 1450 1452 1453 1454 1455 1456 1457 1457 1458 1458 1459 1460 1461 1461 1462 1463 1463 1463 1463 1462 1461 1462 1463 1463 1463 1463 1462 1462 1462 1462 1462 1462 1461 1461 1460 1459 1459 1458 1457
1440 1440 1439 1439 1439 1439 1439 1440 1440 1440 1439 1439 1440 1440 1441 1441 1441 1441 1442 1443 1443 1444 1445 1445 1446 1447 1448 1449 1450 1451 1452 1453 1454 1454 1455 1456 1457 1458 1458 1459 1459 1460 1460 1459 1458 1458 1459 1459 1459 1458 1458 1458 1458 1458 1458 1458 1458 1457 1456 1455 1454 1454 1453
1436 1436 1436 1436 1436 1436 1436 1436 1436 1436 1435 1436 1436 1436 1436 1436 1437 1437 1438 1438 1439 1440 1440 1440 1441 1442 1444 1444 1445 1446 1448 1449 1450 1451 1452 1453 1453 1454 1455 1455 1455 1456 1456 1456 1455 1455 1455 1455 1455 1454 1454 1455 1455 1455 1454 1454 1453 1453 1452 1451 1450 1450 1449
1431 1432 1432 1432 1432 1432 1432 1432 1432 1432 1432 1432 1432 1432 1432 1432 1433 1433 1434 1434 1435 1436 1436 1436 1437 1438 1439 1440 1441 1442 1444 1445 1446 1447 1448 1449 1450 1450 1451 1451 1451 1451 1452 1452 1451 1451 1451 1450 1451 1451 1450 1451 1452 1451 1450 1450 1449 1447 1448 1448 1447 1446 1446
1427 1428 1428 1428 1428 1428 1428 1428 1428 1428 1428 1428 1428 1428 1428 1428 1429 1429 1430 1430 1431 1432 1432 1432 1432 1433 1434 1435 1437 1438 1440 1441 1442 1443 1444 1445 1445 1446 1446 1447 1447 1447 1447 1447 1447 1446 1446 1446 1446 1446 1446 1447 1447 1447 1446 1447 1446 1444 1443 1444 1443 1443 1442
1424 1423 1423 1424 1424 1424 1424 1424 1424 1424 1424 1424 1424 1424 1424 1424 1424 1425 1426 1426 1427 1427 1428 1427 1428 1429 1430 1431 1433 1435 1436 1437 1438 1439 1440 1441 1441 1442 1442 1443 1443 1443 1443 1443 1443 1442 1442 1442 1441 1441 1442 1442 1443 1443 1442 1443 1443 1441 1440 1440 1439 1439 1439
1420 1420 1420 1419 1420 1420 1420 1419 1420 1420 1420 1420 1420 1420 1420 1420 1420 1421 1421 1422 1422 1423 1423 1423 1424 1425 1426 1428 1430 1431 1432 1433 1434 1435 1435 1436 1437 1438 1438 1438 1439 1439 1439 1439 1439 1438 1439 1438 1437 1437 1438 1438 1439 1439 1439 1439 1439 1438 1437 1437 1435 1434 1435
1416 1416 1416 1415 1415 1415 1415 1415 1415 1415 1416 1416 1416 1416 1415 1416 1416 1416 1416 1417 1417 1418 1418 1419 1420 1421 1423 1425 1426 1427 1428 1429 1429 1430 1431 1432 1433 1433 1434 1434 1434 1435 1435 1435 1435 1434 1435 1434 1433 1434 1435 1435 1435 1436 1436 1436 1436 1435 1434 1434 1432 1431 1431
1412 1412 1411 1411 1410 1410 1409 1410 1410 1411 1411 1411 1411 1411 1411 1411 1411 1411 1412 1412 1412 1413 1414 1415 1416 1417 1419 1421 1422 1423 1424 1424 1425 1426 1427 1428 1429 1429 1430 1430 1430 1430 1430 1431 1431 1430 1430 1430 1430 1431 1432 1432 1432 1433 1433 1433 1432 1432 1431 1430 1430 1428 1428
1408 1408 1407 1406 1405 1405 1404 1404 1404 1405 1405 1405 1406 1406 1406 1406 1406 1406 1407 1407 1408 1408 1409 1410 1412 1414 1415 1417 1418 1419 1419 1420 1421 1422 1423 1424 1425 1425 1426 1426 1426 1426 1426 1426 1426 1426 1426 1426 1427 1427 1428 1429 1429 1429 1429 1429 1428 1428 1428 1427 1427 1426 1425
1405 1404 1403 1402 1401 1400 1400 1399 1399 1399 1399 1400 1400 1401 1401 1401 1402 1402 1402 1403 1403 1404 1405 1406 1408 1410 1411 1413 1413 1414 1415 1416 1418 1419 1420 1421 1421 1421 1422 1422 1422 1423 1423 1422 1422 1421 1421 1422 1423 1424 1424 1426 1426 1426 1425 1425 1425 1425 1425 1424 1423 1423 1422
1401 1401 1400 1399 1398 1397 1396 1396 1395 1395 1395 1395 1395 1396 1396 1396 1396 1397 1398 1398 1399 1400 1401 1403 1405 1406 1407 1408 1409 1410 1411 1413 1414 1415 1416 1417 1417 1417 1417 1417 1418 1419 1419 1419 1419 1418 1417 1418 1419 1420 1420 1422 1422 1422 1421 1422 1421 1421 1421 1420 1419 1419 1418
1398 1397 1396 1396 1395 1394 1393 1392 1392 1391 1391 1390 1391 1392 1392 1391 1391 1393 1394 1394 1395 1396 1398 1399 1401 1402 1403 1404 1405 1406 1407 1409 1410 1411 1412 1413 1413 1413 1413 1413 1414 1415 1415 1415 1415 1415 1415 1415 1416 1416 1417 1417 1418 1418 1418 1419 1418 1418 1418 1417 1416 1415 1414
1394 1394 1393 1392 1392 1390 1389 1389 1388 1388 1387 1387 1387 1388 1388 1387 1387 1388 1389 1391 1392 1393 1394 1396 1397 1398 1398 1399 1401 1402 1403 1405 1406 1407 1408 1408 1409 1409 1409 1408 1410 1411 1411 1411 1412 1412 1412 1412 1413 1414 1415 1415 1415 1415 1415 1415 1413 1413 1414 1414 1412 1411 1411
1390 1390 1389 1388 1388 1387 1386 1386 1385 1384 1384 1383 1383 1384 1385 1384 1384 1385 1386 1387 1388 1389 1391 1392 1393 1394 1394 1395 1397 1398 1399 1400 1401 1402 1403 1403 1404 1404 1403 1403 1405 1406 1406 1407 1408 1408 1409 1410 1410 1411 1411 1411 1412 1412 1412 1411 1409 1410 1411 1410 1409 1409 1409
1386 1386 1385 1384 1384 1383 1383 1382 1382 1382 1381 1380 1380 1381 1382 1382 1382 1381 1382 1383 1384 1385 1387 1388 1389 1389 1390 1392 1393 1394 1396 1397 1398 1398 1398 1399 1399 1398 1398 1399 1400 1400 1400 1401 1402 1403 1404 1404 1405 1406 1405 1405 1406 1407 1407 1407 1407 1407 1407 1407 1406 1407 1406
1383 1382 1381 1381 1380 1380 1379 1379 1379 1379 1378 1378 1378 1378 1379 1379 1379 1378 1378 1379 1380 1381 1382 1383 1384 1385 1387 1388 1390 1391 1393 1394 1395 1395 1395 1395 1395 1394 1394 1395 1396 1396 1396 1396 1396 1397 1398 1398 1399 1399 1399 1399 1400 1401 1401 1403 1404 1404 1404 1404 1404 1404 1404
1379 1378 1378 1377 1376 1376 1376 1376 1375 1375 1375 1375 1375 1375 1376 1376 1376 1375 1375 1376 1377 1377 1378 1379 1380 1381 1383 1385 1386 1388 1389 1391 1392 1393 1393 1392 1392 1391 1391 1392 1391 1392 1392 1392 1392 1393 1393 1393 1394 1394 1394 1394 1395 1396 1397 1399 1400 1401 1401 1401 1401 1401 1400
1376 1375 1374 1373 1372 1372 1372 1372 1372 1372 1372 1372 1372 1373 1373 1374 1373 1373 1373 1372 1373 1373 1374 1375 1376 1378 1380 1381 1382 1384 1386 1387 1388 1389 1389 1388 1388 1389 1389 1389 1388 1388 1388 1388 1388 1389 1388 1389 1390 1391 1391 1391 1392 1393 1395 1396 1396 1397 1398 1398 1398 1397 1396
1371 1371 1370 1369 1368 1368 1368 1368 1369 1369 1368 1369 1369 1369 1370 1371 1370 1370 1369 1369 1370 1370 1371 1372 1373 1375 1376 1377 1379 1380 1381 1383 1383 1384 1384 1384 1385 1385 1386 1386 1386 1385 1384 1384 1385 1385 1385 1385 1386 1387 1388 1389 1390 1391 1392 1393 1393 1394 1394 1394 1394 1394 1393
1368 1367 1366 1365 1365 1364 1364 1364 1365 1365 1365 1366 1366 1366 1367 1368 1368 1367 1366 1367 1367 1368 1369 1369 1370 1372 1373 1374 1375 1376 1378 1378 1379 1380 1380 1380 1381 1381 1381 1382 1382 1382 1381 1381 1381 1381 1381 1381 1382 1383 1384 1385 1386 1387 1388 1389 1390 1390 1391 1391 1391 1391 1390
1366 1365 1364 1363 1362 1361 1361 1361 1361 1362 1362 1363 1363 1363 1364 1365 1365 1364 1363 1363 1364 1365 1366 1367 1368 1369 1370 1371 1372 1373 1373 1374 1375 1375 1376 1376 1377 1377 1377 1377 1378 1378 1378 1378 1377 1378 1378 1378 1379 1380 1381 1382 1383 1383 1384 1385 1386 1386 1387 1387 1387 1386 1386
1364 1363 1362 1361 1360 1359 1359 1358 1357 1358 1359 1360 1360 1360 1361 1361 1362 1361 1361 1361 1361 1362 1363 1365 1365 1366 1367 1367 1368 1369 1369 1370 1370 1370 1371 1372 1372 1372 1373 1374 1374 1374 1374 1374 1374 1375 1376 1376 1377 1378 1379 1379 1380 1380 1381 1382 1382 1383 1383 1383 1382 1381 1380
1362 1360 1359 1358 1357 1357 1356 1356 1355 1355 1356 1356 1357 1357 1357 1358 1358 1359 1359 1359 1359 1360 1360 1361 1362 1362 1363 1364 1364 1365 1365 1365 1366 1366 1366 1367 1367 1367 1369 1370 1370 1370 1370 1371 1371 1372 1373 1374 1374 1375 1376 1376 1377 1378 1379 1379 1379 1379 1379 1379 1378 1376 1374
1359 1358 1357 1356 1355 1354 1354 1353 1352 1352 1352 1353 1354 1354 1354 1354 1355 1356 1356 1357 1357 1357 1357 1357 1358 1358 1359 1359 1360 1360 1361 1361 1361 1361 1362 1362 1362 1363 1364 1365 1366 1366 1367 1367 1368 1369 1370 1370 1371 1372 1372 1373 1374 1375 1376 1376 1376 1376 1376 1375 1373 1371 1370
1356 1355 1355 1354 1353 1352 1351 1351 1350 1350 1349 1350 1350 1351 1351 1351 1352 1352 1353 1353 1354 1354 1354 1354 1354 1354 1355 1355 1355 1355 1356 1357 1357 1357 1357 1358 1358 1359 1359 1360 1361 1362 1363 1363 1365 1366 1366 1366 1367 1368 1369 1370 1371 1372 1373 1372 1372 1372 1372 1371 1370 1368 1367
1353 1352 1351 1351 1350 1350 1350 1349 1348 1348 1347 1347 1347 1348 1348 1348 1348 1349 1349 1350 1350 1350 1350 1350 1350 1350 1351 1351 1351 1351 1351 1352 1353 1353 1353 1353 1354 1354 1355 1356 1357 1358 1359 1360 1361 1362 1363 1363 1364 1365 1366 1367 1368 1369 1369 1369 1369 1368 1368 1367 1366 1365 1364
1350 1349 1348 1348 1347 1347 1347 1346 1346 1346 1346 1345 1344 1344 1345 1345 1345 1346 1346 1346 1346 1346 1346 1346 1347 1347 1347 1347 1347 1347 1347 1348 1348 1348 1349 1349 1350 1351 1351 1352 1353 1354 1355 1356 1357 1358 1360 1360 1361 1362 1363 1364 1365 1365 1366 1365 1365 1365 1364 1364 1363 1362 1361
1347 1346 1346 1345 1344 1344 1344 1343 1343 1343 1343 1343 1343 1342 1342 1342 1342 1342 1343 1343 1343 1343 1343 1343 1343 1343 1344 1344 1344 1344 1344 1344 1345 1345 1346 1346 1347 1347 1348 1348 1349 1351 1352 1352 1353 1355 1356 1357 1358 1359 1360 1361 1361 1362 1362 1362 1362 1361 1361 1360 1360 1359 1358
1344 1344 1343 1342 1342 1341 1341 1341 1341 1340 1340 1340 1340 1340 1340 1340 1340 1340 1340 1339 1338 1339 1339 1340 1340 1340 1340 1340 1340 1340 1341 1341 1342 1342 1343 1343 1343 1344 1345 1346 1347 1347 1348 1349 1350 1352 1353 1354 1355 1356 1357 1357 1358 1358 1359 1359 1359 1358 1358 1357 1356 1356 1355
1341 1341 1340 1340 1339 1338 1338 1338 1338 1338 1338 1337 1337 1337 1337 1337 1336 1337 1337 1336 1335 1335 1336 1337 1337 1337 1337 1337 1337 1338 1338 1338 1339 1340 1340 1341 1341 1341 1342 1343 1344 1345 1345 1346 1347 1349 1350 1351 1352 1353 1354 1354 1355 1355 1356 1356 1356 1356 1355 1355 1353 1352 1352
1337 1337 1337 1337 1336 1336 1335 1335 1335 1335 1335 1335 1334 1334 1334 1334 1333 1333 1333 1333 1332 1331 1331 1332 1333 1334 1334 1334 1334 1335 1335 1336 1336 1337 1338 1339 1339 1340 1340 1341 1342 1342 1343 1344 1345 1346 1347 1348 1349 1350 1351 1351 1352 1352 1353 1353 1353 1353 1352 1352 1351 1350 1349
1334 1334 1334 1334 1333 1333 1332 1331 1331 1330 1330 1331 1331 1331 1331 1331 1330 1329 1329 1329 1329 1329 1329 1329 1329 1330 1331 1331 1332 1332 1333 1333 1334 1335 1336 1337 1338 1338 1339 1339 1340 1340 1341 1342 1343 1343 1344 1345 1346 1347 1348 1348 1349 1350 1350 1350 1350 1350 1350 1349 1348 1347 1346
Wind_Speed
43 43 44 44 45 45 46 46 46 46 46 46 46 46 46 45 45 44 44 42 41 40 39 38 37 36 35 33 33 32 31 31 30 28 27 27 26 26 25 24 24 27 28 26 25 25 25 25 26 28 29 30 32 33 34 35 36 37 37 37 35 34 33
41 42 43 44 44 45 45 46 46 47 47 47 47 47 47 47 46 46 46 45 44 42 41 40 39 37 36 34 33 32 31 30 29 28 27 26 26 25 24 24 24 26 28 29 28 27 28 28 28 29 29 29 31 32 33 34 34 34 34 34 33 34 34
40 41 42 43 44 44 44 45 46 47 47 48 48 48 48 48 47 48 48 47 46 44 43 42 40 39 37 35 34 32 31 30 29 28 27 26 25 25 24 24 24 26 28 30 29 28 29 29 28 29 28 27 28 30 31 32 32 33 33 33 34 35 35
38 40 41 42 43 43 43 44 45 46 47 48 48 48 48 48 48 48 49 48 48 46 45 44 42 40 38 36 35 33 32 31 30 28 27 26 25 25 25 24 25 26 27 29 30 29 29 28 29 29 28 27 29 29 30 30 31 32 33 34 35 34 33
36 38 40 41 42 43 43 43 44 45 47 47 48 48 48 48 48 49 49 48 48 47 46 45 44 42 39 38 36 34 33 31 30 28 27 26 25 25 25 25 26 26 27 28 30 30 29 29 29 30 30 29 30 31 31 31 31 32 33 34 33 31 30
33 35 38 39 40 41 41 42 42 44 45 46 47 47 48 48 48 48 48 48 48 47 46 46 45 42 40 39 37 35 33 30 28 27 26 25 25 25 25 26 26 26 26 27 29 30 30 30 31 32 32 31 31 32 32 32 32 32 31 30 29 28 27
31 32 35 36 37 39 39 40 40 42 43 44 45 46 47 48 48 48 48 48 48 47 47 46 45 44 42 40 37 34 31 29 27 26 25 25 25 25 25 25 25 25 26 27 28 29 30 31 32 32 33 32 31 31 32 30 30 30 28 26 26 25 25
30 30 32 33 34 36 37 38 39 39 40 42 43 45 46 47 47 47 48 48 48 47 47 47 46 45 43 40 37 33 30 28 26 26 25 25 25 25 25 25 25 25 26 27 28 30 31 31 32 32 32 31 29 29 29 26 25 28 26 23 23 23 23
28 30 31 31 32 33 34 36 37 37 38 39 41 43 45 46 47 47 48 48 48 48 47 47 47 46 44 40 35 31 28 27 27 26 26 25 25 25 25 25 25 26 26 27 29 31 31 31 32 31 30 28 26 26 25 23 22 24 24 23 24 25 25
27 28 30 30 30 30 32 34 34 35 36 37 38 40 42 44 46 47 47 48 49 48 48 48 47 46 43 38 33 30 28 27 27 26 26 25 25 25 25 25 26 27 27 28 29 30 29 30 32 30 27 27 25 23 22 21 21 24 24 24 26 27 25
26 27 28 29 29 29 30 32 32 33 34 35 36 38 40 42 44 45 47 48 48 49 49 48 47 45 42 36 32 29 28 27 27 27 26 26 25 26 26 26 27 28 28 28 29 29 29 30 31 29 26 26 25 23 22 22 22 23 23 22 23 26 26
25 26 28 29 29 29 29 30 30 30 31 32 34 36 38 40 42 44 46 47 48 49 48 48 47 45 40 34 31 29 28 28 28 27 26 26 26 26 27 28 28 29 29 29 29 29 30 30 30 29 28 26 25 24 23 22 21 21 22 23 24 27 28
22 23 24 26 27 28 28 28 28 27 28 30 32 34 36 38 40 43 45 46 48 48 48 47 46 42 37 33 31 30 29 28 28 27 27 27 27 28 29 29 29 29 29 29 29 31 32 31 30 29 28 26 24 24 23 23 23 24 24 26 27 28 27
20 21 22 22 24 25 26 26 27 26 27 27 28 30 34 36 38 41 44 45 47 47 47 46 43 39 35 32 31 31 30 29 28 28 27 27 28 29 29 29 28 27 27 28 30 32 33 32 30 29 28 26 24 25 26 27 27 26 26 28 29 28 27
21 21 21 20 21 23 23 24 25 25 25 26 25 26 30 34 36 39 42 44 45 46 45 42 39 35 33 32 32 30 29 28 27 27 28 28 28 29 28 28 28 26 26 27 28 31 33 33 31 30 28 27 27 28 29 28 28 28 29 29 29 27 27
22 21 21 20 20 21 21 21 22 22 23 23 22 22 27 32 34 36 39 41 43 43 41 38 35 34 33 32 31 29 28 27 27 27 28 28 28 28 28 29 28 27 26 26 27 28 30 31 30 28 26 25 25 26 26 25 26 27 27 27 26 26 27
23 23 22 21 21 21 21 20 20 20 20 20 19 19 25 31 32 33 35 37 40 40 38 36 35 34 34 32 30 29 28 27 27 27 28 28 28 29 30 30 29 28 27 26 25 26 28 28 27 24 23 24 24 25 25 26 28 29 27 26 26 27 27
25 25 24 23 22 21 22 21 19 18 18 18 17 18 23 30 32 32 32 33 36 38 36 35 35 33 32 30 29 28 27 26 26 27 27 28 29 30 31 32 31 30 29 26 25 26 27 28 28 27 27 28 28 28 28 30 32 31 28 27 27 28 28
27 27 26 25 24 23 22 22 20 18 17 16 16 17 22 27 31 32 33 32 34 35 35 34 33 32 31 29 27 27 26 25 26 26 28 29 29 31 32 32 31 31 30 29 27 27 27 29 30 31 33 35 35 34 35 34 32 30 28 29 29 29 30
27 28 27 26 26 24 23 22 21 19 17 16 15 15 19 25 30 32 33 33 33 34 34 34 33 32 31 29 27 26 26 25 24 25 27 28 29 31 32 31 30 30 30 30 30 28 27 26 26 26 29 33 35 36 37 34 31 30 30 32 32 32 32
28 28 28 27 27 26 24 22 22 21 18 17 16 16 18 23 27 30 31 33 33 32 32 32 32 31 30 28 27 26 26 25 24 24 25 27 28 30 29 29 30 30 30 30 29 27 24 23 21 21 23 25 26 28 30 30 30 30 30 31 32 32 33
29 28 28 27 27 27 25 23 21 21 20 19 19 18 19 22 24 27 29 30 31 31 30 30 30 29 28 27 26 25 25 25 24 24 25 26 26 25 24 26 28 29 28 27 24 22 22 21 19 18 19 19 19 20 22 25 27 27 28 28 29 30 31
28 28 27 27 26 26 25 23 21 20 20 19 19 20 20 21 22 24 26 27 27 27 27 26 25 25 24 24 24 24 25 25 25 24 25 25 23 22 21 22 24 26 27 26 24 23 24 24 22 20 19 19 20 20 21 22 23 24 25 25 26 27 29
26 26 27 27 27 26 25 23 21 19 18 18 18 19 19 19 19 20 22 22 22 22 23 23 22 22 22 22 23 23 24 23 23 23 23 22 21 20 20 21 24 25 26 27 27 27 29 28 26 25 24 23 23 23 23 22 22 21 22 23 25 27 29
23 23 24 24 25 25 24 24 23 20 18 17 17 17 18 19 21 21 21 21 21 22 23 23 23 23 23 23 24 23 23 23 23 24 24 23 22 22 23 22 24 26 27 27 27 27 28 28 27 26 25 24 23 23 23 22 21 21 21 23 26 28 29
22 23 22 23 23 24 23 23 24 22 19 17 17 17 18 20 22 24 24 24 23 22 22 23 24 24 25 25 25 25 25 26 26 27 27 27 27 28 27 24 24 27 28 28 28 27 26 26 26 25 25 24 24 24 23 22 22 22 23 25 28 30 31
21 22 22 23 23 23 21 21 22 23 20 18 17 16 17 19 21 23 25 26 26 25 24 24 24 24 25 26 27 28 28 28 27 28 29 30 31 32 30 26 26 27 29 29 28 28 27 27 26 26 26 25 24 23 22 22 23 23 25 27 28 31 31
19 20 20 19 19 20 20 20 20 22 21 19 17 16 16 18 20 22 23 25 26 26 26 26 26 26 26 27 29 29 29 28 28 28 30 31 32 32 31 29 27 27 30 30 28 26 26 26 27 27 26 25 24 23 23 23 24 25 26 27 28 29 29
20 21 21 20 19 18 19 19 19 20 21 21 19 17 17 17 19 20 21 22 23 24 25 26 27 27 27 27 27 27 27 27 26 27 28 30 31 32 31 30 28 25 26 28 27 25 26 26 26 26 25 25 24 23 22 23 25 26 26 25 25 26 26
19 19 20 22 22 19 18 19 20 20 20 21 21 19 18 17 17 18 20 21 22 23 24 25 25 26 25 25 26 26 26 25 25 26 27 27 28 29 28 28 26 23 22 24 26 26 26 26 26 26 25 25 23 22 23 24 25 25 24 23 23 24 24
17 18 17 18 20 20 20 21 22 21 20 20 20 20 19 19 18 18 19 20 20 22 23 23 24 24 24 24 25 25 25 24 24 25 25 24 24 25 25 25 24 21 20 23 26 27 27 27 27 27 26 24 23 22 23 24 24 23 22 22 22 23 23
15 16 16 15 15 17 18 20 21 21 20 19 18 18 19 19 19 19 20 20 21 22 23 23 23 24 24 25 25 25 24 24 23 23 23 22 22 22 22 22 21 18 18 22 26 27 28 28 27 26 24 23 23 23 23 22 21 20 20 21 22 23 23
14 14 15 15 15 14 14 15 16 17 18 18 18 18 18 19 20 20 20 21 24 24 24 23 23 24 24 24 24 24 23 23 22 21 20 19 19 19 19 17 15 14 16 20 25 26 27 27 27 25 24 23 23 22 21 20 19 19 20 21 23 23 22
18 16 14 15 16 16 15 15 15 15 15 16 16 17 17 18 20 20 19 20 23 26 25 23 23 23 24 23 22 21 21 21 21 20 18 17 16 17 17 15 13 13 14 17 21 25 26 26 25 25 24 23 21 20 20 19 19 19 20 21 22 22 22
21 18 15 14 16 17 18 18 18 18 18 17 17 17 17 16 18 21 21 21 22 24 26 26 24 23 23 22 21 19 19 20 20 19 17 15 14 15 16 16 16 15 14 14 18 21 22 23 23 24 23 21 20 19 20 20 19 20 21 21 22 22 22
22 20 18 17 17 19 20 21 21 20 20 20 20 20 20 20 20 22 24 24 24 24 25 25 25 24 22 21 20 19 19 19 19 18 17 16 14 14 15 17 18 18 18 17 17 18 19 21 22 22 21 20 20 20 21 21 20 20 21 22 22 22 22
Wind_Direction
258 259 260 261 262 263 263 263 262 263 262 260 259 258 257 256 255 255 255 254 254 254 254 255 255 254 252 250 249 248 248 248 249 251 251 252 254 255 256 257 258 263 268 267 263 263 261 256 254 254 255 259 264 267 269 272 275 278 282 286 289 291 293
258 258 259 260 261 261 261 262 262 262 261 260 258 257 256 255 254 254 253 253 253 253 253 253 253 252 251 249 247 246 246 247 247 249 250 251 253 255 256 258 259 262 268 270 269 268 269 268 265 264 263 263 264 266 268 270 273 277 282 286 288 290 292
258 259 259 259 260 260 260 260 261 260 260 259 259 257 257 256 255 254 253 253 253 253 252 251 251 250 249 247 245 244 243 244 245 246 249 250 251 254 256 255 257 259 263 268 270 270 271 272 272 272 271 268 265 265 266 270 274 278 282 284 286 289 290
257 258 258 259 259 260 260 259 260 259 259 258 258 257 257 256 255 255 254 254 254 253 252 251 250 249 247 245 243 242 240 241 243 244 247 250 251 254 257 257 256 258 260 264 268 269 270 272 273 273 272 269 267 266 268 272 276 278 280 283 285 287 289
258 257 257 258 259 260 260 260 260 259 258 258 258 257 257 256 255 255 254 254 253 252 251 251 249 248 246 244 242 240 239 239 241 244 247 250 253 255 257 258 258 258 259 261 265 268 269 269 270 270 269 268 269 270 272 274 276 278 280 283 284 285 287
260 258 257 258 260 261 261 261 260 259 259 259 258 257 256 255 254 253 253 252 251 250 250 250 248 247 244 243 242 241 240 240 241 243 246 250 253 255 257 258 259 260 261 262 264 268 270 269 268 269 269 268 269 272 275 277 279 279 280 282 283 284 285
264 261 260 260 260 261 262 262 261 260 260 259 258 257 255 254 252 251 251 250 250 248 248 248 247 246 244 243 243 242 241 241 242 244 247 249 252 255 258 261 264 265 265 266 268 269 270 271 270 270 270 270 270 272 274 277 279 281 281 281 281 281 280
267 266 264 263 262 262 263 263 262 261 260 259 258 257 255 253 251 250 249 249 248 247 247 246 246 245 244 243 243 242 241 241 243 245 248 251 254 257 261 264 267 268 269 270 271 272 272 273 273 271 271 272 272 272 274 275 276 278 279 277 275 274 274
265 266 266 265 264 263 263 263 263 262 261 261 259 257 255 253 251 250 249 248 247 246 245 244 244 244 243 242 241 241 241 242 244 247 249 252 256 260 263 266 269 270 270 271 272 273 274 273 273 273 273 274 272 273 277 276 270 269 270 271 271 270 272
264 264 265 266 265 264 264 264 264 264 263 263 261 259 257 255 253 251 249 248 246 245 243 242 242 242 241 240 240 240 241 243 245 248 251 254 258 261 264 268 270 272 273 273 273 274 273 272 272 272 272 273 273 273 273 268 265 266 269 271 272 275 278
266 265 264 264 264 264 263 263 264 264 264 264 263 261 259 256 254 252 250 248 246 244 243 242 241 240 239 237 238 240 241 244 247 250 253 257 260 264 267 270 272 274 275 275 274 274 271 268 269 269 268 268 270 269 266 264 266 268 269 270 273 280 286
271 268 267 266 266 264 262 262 262 262 263 262 262 261 259 258 255 252 250 248 246 245 244 243 241 239 237 237 238 241 243 245 248 251 254 258 261 265 268 271 274 276 276 275 274 272 269 266 266 267 265 264 265 266 265 263 261 259 261 265 271 279 286
282 278 276 274 272 270 267 264 261 259 259 259 259 260 259 258 256 253 251 249 247 245 244 243 242 239 237 237 239 242 243 245 248 250 254 258 261 265 269 272 274 275 276 275 273 271 268 265 264 265 264 264 265 264 260 256 255 257 262 269 274 282 286
290 288 285 282 279 276 273 270 265 260 256 255 257 258 258 257 255 253 252 250 248 246 245 244 241 237 238 240 241 243 244 245 248 250 254 258 262 267 271 273 273 272 272 272 269 268 268 267 264 264 265 264 262 261 259 260 263 269 276 279 281 284 283
291 290 289 287 286 283 280 277 271 265 259 255 254 254 255 256 254 252 251 250 247 245 244 243 240 239 242 244 245 246 247 248 249 251 255 259 263 268 272 273 272 272 271 270 268 266 265 264 264 266 268 268 265 264 266 271 275 279 283 282 279 277 276
291 290 289 288 288 287 287 284 279 273 264 257 251 245 246 252 254 251 248 247 245 243 241 240 240 242 245 246 247 248 249 249 250 252 255 260 264 268 271 273 274 275 276 275 272 269 267 266 268 271 274 277 278 276 277 279 277 275 274 273 271 272 273
291 290 289 289 288 288 287 287 285 281 271 260 250 238 237 245 250 250 248 246 244 241 238 238 242 245 246 247 249 250 250 250 252 254 258 263 267 270 273 276 277 277 277 274 265 261 265 271 275 276 275 275 275 276 278 276 269 265 265 264 264 265 268
291 290 290 289 288 288 287 286 286 285 277 264 250 234 233 240 245 247 248 246 243 240 238 240 244 246 247 248 250 251 252 253 255 259 264 268 272 274 276 280 281 280 278 273 263 253 252 256 259 259 258 257 256 255 257 259 261 263 262 259 257 260 267
290 290 290 289 288 287 286 285 282 280 277 268 253 234 230 237 242 246 248 246 242 240 241 243 245 246 247 248 247 248 251 252 255 261 267 271 273 274 276 280 281 279 277 276 272 265 257 253 252 251 250 250 249 247 247 250 257 261 259 257 259 263 269
290 289 289 288 287 286 285 283 280 276 271 265 256 236 228 236 242 244 245 245 243 243 245 247 247 247 247 246 245 245 247 248 250 257 264 268 270 272 276 278 277 274 274 275 275 274 271 266 262 257 253 251 249 248 248 250 254 257 257 259 262 265 269
290 289 289 289 287 286 285 283 280 277 269 262 256 239 227 235 244 244 244 246 246 246 248 248 248 248 248 247 246 245 245 247 249 254 261 264 266 269 273 275 272 270 271 273 274 275 272 269 263 256 253 252 250 249 250 251 252 255 257 260 263 266 270
290 289 288 289 288 288 288 286 281 277 272 264 259 249 236 237 245 248 248 247 247 246 246 247 248 249 248 246 246 246 247 252 257 261 264 266 265 264 264 266 269 271 271 270 273 274 272 269 264 255 249 250 252 252 252 253 255 258 260 263 265 268 271
292 292 291 291 290 290 290 288 284 279 275 269 263 257 246 240 245 251 250 248 246 244 243 244 244 244 244 245 247 251 257 263 267 269 270 269 266 262 257 256 259 265 267 267 268 268 266 266 266 261 256 257 260 260 259 260 262 262 261 262 264 267 271
290 292 293 294 294 294 293 292 287 281 277 273 267 260 251 239 238 247 251 248 245 242 241 241 241 242 245 249 253 259 264 266 266 267 267 266 262 259 255 250 248 252 259 262 261 259 257 259 263 264 264 265 264 263 264 267 268 265 261 262 266 270 275
285 287 290 291 292 294 295 295 292 286 281 276 269 263 255 241 233 237 243 244 242 241 241 243 244 247 250 253 258 264 266 264 262 261 261 259 255 253 254 251 246 245 249 254 256 254 252 253 256 259 261 262 259 258 262 267 267 265 266 270 275 279 282
282 283 285 285 285 288 292 292 291 289 286 281 274 265 257 248 238 234 237 241 245 245 246 247 249 251 254 258 263 267 269 268 265 263 262 260 256 254 257 257 251 246 246 249 252 253 253 253 254 254 255 254 252 253 258 263 264 266 272 279 284 287 287
285 284 285 284 284 286 288 288 287 287 287 286 283 274 262 255 248 241 238 240 245 250 252 254 256 258 261 264 266 267 267 266 263 260 260 259 258 259 262 262 256 248 246 247 250 252 254 255 254 253 251 250 250 251 254 258 263 270 279 285 289 289 290
283 284 285 287 287 286 286 283 283 286 289 289 288 281 269 259 253 249 245 244 246 250 254 257 260 262 264 266 267 267 267 265 263 261 260 258 258 260 263 265 263 255 249 249 250 250 250 250 249 249 249 248 248 249 253 259 267 276 284 289 290 290 292
277 274 275 278 278 277 277 276 275 280 286 288 288 284 277 266 256 252 250 249 249 251 254 257 260 263 265 266 268 269 269 268 266 264 260 258 257 259 262 264 266 262 253 249 247 245 243 243 244 245 244 244 246 250 257 266 276 283 287 289 289 290 292
283 276 272 271 270 267 266 268 272 274 278 281 284 284 281 273 263 256 253 252 253 254 256 259 262 265 268 270 272 273 272 271 269 266 263 261 259 261 263 265 266 263 254 244 240 239 240 242 244 243 242 244 249 256 266 275 281 285 287 288 289 289 291
293 289 284 277 273 269 264 264 268 269 270 274 278 280 280 276 270 263 258 256 256 258 259 262 264 268 271 273 274 274 274 272 271 268 266 265 263 263 263 264 264 262 253 242 237 237 239 241 242 241 243 248 256 265 273 279 282 284 287 289 290 291 293
302 300 297 290 281 275 272 272 274 274 272 269 268 269 272 273 272 269 265 262 259 257 259 263 266 270 273 274 274 274 273 271 268 266 264 265 264 263 262 263 263 261 252 243 238 237 238 240 241 243 250 258 266 271 275 277 280 284 289 292 293 294 295
305 301 300 296 289 280 274 274 278 280 280 279 274 268 265 265 266 266 265 264 264 262 262 264 267 270 272 272 272 271 269 266 265 264 263 263 262 263 265 266 267 263 252 244 241 239 240 242 245 250 258 264 267 270 271 273 279 285 290 294 295 296 297
305 304 303 298 294 290 282 274 269 267 269 273 275 272 269 266 265 262 257 256 261 265 267 266 267 270 272 272 271 267 263 260 260 260 260 259 256 258 263 266 265 260 251 244 242 242 243 245 248 253 258 261 262 263 264 268 276 284 290 294 297 297 298
306 308 305 296 290 289 287 284 279 272 265 261 259 260 261 261 262 263 260 255 255 260 265 267 268 270 271 271 269 264 258 255 255 256 257 255 249 247 250 254 256 257 255 249 243 243 245 247 250 254 256 257 255 256 260 267 275 283 289 294 296 296 296
300 301 298 291 286 285 286 286 285 281 275 268 263 259 255 250 249 254 259 261 259 259 262 266 268 269 270 268 265 260 256 253 252 253 255 256 253 249 247 249 252 256 259 256 251 249 248 249 251 253 253 251 251 255 263 270 275 281 288 293 295 295 295